Weather History for Holloman AFB, NM

Change the Weather History Date:

Thursday, February 21, 2013

  Actual Average Record
Temperature  
Mean Temperature 40 °F -  
Max Temperature 52 °F 58 °F 75 °F (2000)
Min Temperature 28 °F 31 °F 20 °F (2009)
Degree Days  
Heating Degree Days 25    
Moisture  
Dew Point 17 °F    
Average Humidity 42    
Maximum Humidity 63    
Minimum Humidity 22    
Precipitation  
Precipitation 0.00 in - - ()
Sea Level Pressure  
Sea Level Pressure 29.79 in    
Wind  
Wind Speed 13 mph (SSW)    
Max Wind Speed 23 mph    
Max Gust Speed 29 mph    
Visibility 10 miles    
Events      
Averages and records for this station are not official NWS values.
T = Trace of Precipitation, MM = Missing Value Source: NWS Daily Summary

Daily Weather History Graph

Daily Weather History Graph

Search for Another Location

Airport:

Trip Planner

Search our weather history database for the weather conditions in past years. The results will help you decide how hot, cold, wet, or windy it might be!

Date:

Astronomy

Feb. 21, 2013 Rise Set
Actual Time 6:41 AM MST 5:55 PM MST
Civil Twilight 6:16 AM MST 6:20 PM MST
Nautical Twilight 5:47 AM MST 6:49 PM MST
Astronomical Twilight 5:18 AM MST 7:17 PM MST
Moon 2:20 PM MST (2/21) 3:39 AM MST (2/21)
Length of Visible Light 12h 04m
Length of Day
11h 14m
Waxing Gibbous, 84% of the Moon is Illuminated
Feb 21
Waxing Gibbous
Feb 25
Full
Mar 4
Last Quarter
Mar 11
New
Mar 19
First Quarter

Hourly Weather History & Observations

Time (MST) Temp. Windchill Dew Point Humidity Pressure Visibility Wind Dir Wind Speed Gust Speed Precip Events Conditions
12:58 AM 36.1 °F 25.2 °F 15.8 °F 44% 29.62 in 10.0 mi SW 20.7 mph 25.3 mph N/A   Clear
1:58 AM 35.2 °F 24.4 °F 15.4 °F 44% 29.61 in 9.0 mi WSW 19.6 mph - N/A   Clear
2:58 AM 33.4 °F 21.1 °F 16.3 °F 50% 29.63 in 10.0 mi WSW 23.0 mph 28.8 mph N/A   Clear
3:58 AM 32.4 °F 20.9 °F 17.1 °F 53% 29.67 in 10.0 mi WSW 18.4 mph - N/A   Clear
4:58 AM 31.3 °F 25.6 °F 16.2 °F 54% 29.72 in 10.0 mi SSE 5.8 mph - N/A   Clear
5:58 AM 29.8 °F 26.3 °F 16.5 °F 58% 29.76 in 10.0 mi ESE 3.5 mph - N/A   Clear
6:58 AM 28.4 °F 21.2 °F 17.1 °F 63% 29.81 in 10.0 mi SE 6.9 mph - N/A   Mostly Cloudy
7:58 AM 34.5 °F 28.6 °F 18.0 °F 51% 29.83 in 10.0 mi South 6.9 mph - N/A   Clear
8:58 AM 36.7 °F 29.4 °F 18.3 °F 47% 29.88 in 10.0 mi SSE 10.4 mph - N/A   Clear
9:58 AM 40.1 °F 36.1 °F 17.8 °F 41% 29.88 in 10.0 mi Variable 5.8 mph - N/A   Clear
10:58 AM 43.5 °F 40.9 °F 16.9 °F 34% 29.85 in 10.0 mi West 4.6 mph - N/A   Clear
11:58 AM 46.8 °F - 17.2 °F 31% 29.83 in 10.0 mi West 10.4 mph - N/A   Clear
12:58 PM 48.0 °F - 17.4 °F 30% 29.82 in 10.0 mi Variable 4.6 mph - N/A   Clear
1:58 PM 49.8 °F - 17.2 °F 27% 29.78 in 10.0 mi SE 5.8 mph - N/A   Clear
2:58 PM 52.5 °F - 15.1 °F 23% 29.76 in 10.0 mi SW 12.7 mph 19.6 mph N/A   Clear
3:58 PM 52.2 °F - 14.2 °F 22% 29.75 in 10.0 mi WSW 8.1 mph 18.4 mph N/A   Clear
4:58 PM 51.1 °F - 15.6 °F 24% 29.75 in 10.0 mi WSW 10.4 mph - N/A   Clear
5:58 PM 48.2 °F - 17.1 °F 29% 29.79 in 10.0 mi SSW 9.2 mph - N/A   Clear
6:58 PM 44.2 °F 39.2 °F 18.5 °F 36% 29.83 in 10.0 mi SSW 9.2 mph - N/A   Clear
7:58 PM 40.1 °F 34.1 °F 19.0 °F 43% 29.84 in 10.0 mi SSW 9.2 mph - N/A   Clear
8:58 PM 38.5 °F 31.1 °F 19.0 °F 46% 29.86 in 10.0 mi SE 11.5 mph - N/A   Clear
9:58 PM 37.4 °F 32.1 °F 19.6 °F 49% 29.88 in 10.0 mi SSE 6.9 mph - N/A   Clear
10:58 PM 35.1 °F 31.0 °F 18.7 °F 51% 29.88 in 10.0 mi South 4.6 mph - N/A   Clear
11:58 PM 35.2 °F 29.5 °F 19.8 °F 53% 29.87 in 10.0 mi SSE 6.9 mph - N/A   Clear